• In Uzbekistan
  • List of Countries
  • For 7 days
  • Water Temperature
  • Satellite Maps
  • Weather Map
  • Weather Widgets
  • user-avatar
    Login

    Hourly Weather Viedma

    Today, 30 April, Sunday

    Time Temperature Precipitation Wind Pressure Humidity
    00:00 +17°C° 0 mm 5 mps 757 mmHg 43%
    01:00 +16°C° 0 mm 5 mps 757 mmHg 44%
    02:00 +16°C° 0 mm 5 mps 757 mmHg 45%
    03:00 +16°C° 0 mm 5 mps 757 mmHg 46%
    04:00 +16°C° 0 mm 5 mps 757 mmHg 46%
    05:00 +16°C° 0 mm 5 mps 757 mmHg 46%
    06:00 +16°C° 0 mm 5 mps 757 mmHg 46%
    07:00 +16°C° 0 mm 5 mps 757 mmHg 45%
    08:00 +16°C° 0 mm 5 mps 757 mmHg 45%
    09:00 +19°C° 0 mm 5 mps 758 mmHg 41%
    10:00 +21°C° 0 mm 5 mps 758 mmHg 36%
    11:00 +25°C° 0 mm 4 mps 758 mmHg 32%
    12:00 +25°C° 0 mm 4 mps 758 mmHg 31%
    13:00 +26°C° 0 mm 4 mps 757 mmHg 29%
    14:00 +27°C° 0 mm 3 mps 757 mmHg 27%
    15:00 +26°C° 0 mm 3 mps 757 mmHg 30%
    16:00 +25°C° 0 mm 3 mps 757 mmHg 32%
    17:00 +24°C° 0 mm 2 mps 757 mmHg 35%
    18:00 +22°C° 0 mm 3 mps 757 mmHg 36%
    19:00 +22°C° 0 mm 3 mps 757 mmHg 38%
    20:00 +21°C° 0 mm 4 mps 757 mmHg 39%
    21:00 +20°C° 0 mm 4 mps 757 mmHg 40%
    22:00 +20°C° 0 mm 4 mps 757 mmHg 41%
    23:00 +19°C° 0 mm 5 mps 757 mmHg 41%

    Tomorrow, 1 May, Monday

    Time Temperature Precipitation Wind Pressure Humidity
    00:00 +19°C° 0 mm 5 mps 757 mmHg 49%
    01:00 +17°C° 0 mm 5 mps 757 mmHg 56%
    02:00 +17°C° 0 mm 6 mps 757 mmHg 64%
    03:00 +17°C° 0 mm 6 mps 756 mmHg 65%
    04:00 +17°C° 0 mm 6 mps 756 mmHg 66%
    05:00 +16°C° 0 mm 6 mps 756 mmHg 67%
    06:00 +16°C° 0 mm 6 mps 756 mmHg 67%
    07:00 +16°C° 0 mm 6 mps 756 mmHg 67%
    08:00 +16°C° 0 mm 6 mps 756 mmHg 67%
    09:00 +19°C° 0 mm 6 mps 756 mmHg 59%
    10:00 +21°C° 0 mm 7 mps 755 mmHg 51%
    11:00 +23°C° 0 mm 7 mps 755 mmHg 44%
    12:00 +24°C° 0 mm 7 mps 755 mmHg 40%
    13:00 +26°C° 0 mm 8 mps 754 mmHg 37%
    14:00 +28°C° 0 mm 8 mps 754 mmHg 34%
    15:00 +27°C° 0 mm 7 mps 753 mmHg 34%
    16:00 +26°C° 0 mm 7 mps 753 mmHg 35%
    17:00 +24°C° 0 mm 6 mps 753 mmHg 36%
    18:00 +23°C° 0 mm 7 mps 753 mmHg 39%
    19:00 +23°C° 0 mm 8 mps 753 mmHg 41%
    20:00 +22°C° 0 mm 9 mps 753 mmHg 43%
    21:00 +21°C° 0 mm 9 mps 753 mmHg 45%
    22:00 +21°C° 0 mm 9 mps 753 mmHg 47%
    23:00 +21°C° 0 mm 9 mps 753 mmHg 49%

    Day after tomorrow, 2 May, Tuesday

    Time Temperature Precipitation Wind Pressure Humidity
    00:00 +19°C° 0 mm 9 mps 753 mmHg 49%
    01:00 +19°C° 0 mm 9 mps 753 mmHg 50%
    02:00 +19°C° 0 mm 9 mps 753 mmHg 50%
    03:00 +20°C° 0 mm 8 mps 753 mmHg 52%
    04:00 +18°C° 0 mm 8 mps 753 mmHg 54%
    05:00 +18°C° 0 mm 8 mps 752 mmHg 55%
    06:00 +17°C° 0 mm 8 mps 753 mmHg 56%
    07:00 +17°C° 0 mm 8 mps 753 mmHg 57%
    08:00 +17°C° 0 mm 8 mps 753 mmHg 58%
    09:00 +20°C° 0 mm 8 mps 754 mmHg 51%
    10:00 +22°C° 0 mm 8 mps 754 mmHg 43%
    11:00 +23°C° 0 mm 8 mps 754 mmHg 36%
    12:00 +24°C° 0 mm 9 mps 754 mmHg 33%
    13:00 +24°C° 0 mm 9 mps 754 mmHg 31%
    14:00 +24°C° 0 mm 9 mps 754 mmHg 28%
    15:00 +24°C° 0 mm 8 mps 755 mmHg 31%
    16:00 +23°C° 0 mm 6 mps 756 mmHg 35%
    17:00 +22°C° 0 mm 5 mps 756 mmHg 38%
    18:00 +21°C° 0 mm 5 mps 757 mmHg 43%
    19:00 +20°C° 0 mm 5 mps 758 mmHg 49%
    20:00 +19°C° 0 mm 5 mps 759 mmHg 54%
    21:00 +17°C° 0 mm 5 mps 760 mmHg 53%
    22:00 +16°C° 0 mm 5 mps 760 mmHg 51%
    23:00 +16°C° 0 mm 5 mps 761 mmHg 50%

    3 May, Wednesday

    Time Temperature Precipitation Wind Pressure Humidity
    00:00 +15°C° 0 mm 4 mps 762 mmHg 51%
    01:00 +14°C° 0 mm 4 mps 762 mmHg 51%
    02:00 +14°C° 0 mm 3 mps 762 mmHg 52%
    03:00 +13°C° 0 mm 3 mps 763 mmHg 52%
    04:00 +13°C° 0 mm 3 mps 763 mmHg 52%
    05:00 +13°C° 0 mm 2 mps 763 mmHg 52%
    06:00 +14°C° 0 mm 2 mps 763 mmHg 52%
    07:00 +14°C° 0 mm 2 mps 764 mmHg 51%
    08:00 +14°C° 0 mm 2 mps 764 mmHg 50%
    09:00 +16°C° 0 mm 3 mps 763 mmHg 46%
    10:00 +16°C° 0 mm 5 mps 763 mmHg 41%
    11:00 +19°C° 0 mm 6 mps 763 mmHg 37%
    12:00 +18°C° 0 mm 7 mps 762 mmHg 36%
    13:00 +20°C° 0 mm 8 mps 761 mmHg 36%
    14:00 +21°C° 0 mm 8 mps 760 mmHg 36%
    15:00 +20°C° 0 mm 8 mps 759 mmHg 39%
    16:00 +18°C° 0 mm 8 mps 759 mmHg 42%
    17:00 +18°C° 0 mm 8 mps 758 mmHg 45%
    18:00 +17°C° 0 mm 8 mps 758 mmHg 49%
    19:00 +17°C° 0 mm 8 mps 757 mmHg 53%
    20:00 +16°C° 0 mm 8 mps 757 mmHg 57%
    21:00 +17°C° 0 mm 9 mps 756 mmHg 58%
    22:00 +17°C° 0 mm 9 mps 756 mmHg 59%
    23:00 +17°C° 0 mm 9 mps 756 mmHg 61%

    4 May, Thursday

    Time Temperature Precipitation Wind Pressure Humidity
    00:00 +17°C° 0 mm 9 mps 755 mmHg 61%
    01:00 +17°C° 0 mm 10 mps 754 mmHg 62%
    02:00 +17°C° 0 mm 10 mps 754 mmHg 63%
    03:00 +17°C° 0 mm 10 mps 753 mmHg 66%
    04:00 +17°C° 0 mm 9 mps 752 mmHg 69%
    05:00 +17°C° 0 mm 9 mps 752 mmHg 72%
    06:00 +17°C° 0 mm 9 mps 752 mmHg 75%
    07:00 +17°C° 0 mm 9 mps 752 mmHg 78%
    08:00 +17°C° 0 mm 9 mps 752 mmHg 80%
    09:00 +19°C° 0 mm 9 mps 751 mmHg 74%
    10:00 +21°C° 0 mm 10 mps 751 mmHg 68%
    11:00 +22°C° 0 mm 11 mps 751 mmHg 63%
    12:00 +23°C° 0 mm 10 mps 750 mmHg 55%
    13:00 +24°C° 0 mm 9 mps 750 mmHg 47%
    14:00 +26°C° 0 mm 8 mps 750 mmHg 39%
    15:00 +24°C° 0 mm 7 mps 750 mmHg 38%
    16:00 +23°C° 0 mm 6 mps 750 mmHg 36%
    17:00 +22°C° 0 mm 5 mps 750 mmHg 35%
    18:00 +22°C° 0 mm 4 mps 751 mmHg 35%
    19:00 +21°C° 0 mm 4 mps 751 mmHg 36%
    20:00 +20°C° 0 mm 4 mps 752 mmHg 36%
    21:00 +19°C° 0 mm 3 mps 752 mmHg 39%
    22:00 +19°C° 0 mm 3 mps 753 mmHg 41%
    23:00 +18°C° 0 mm 3 mps 753 mmHg 44%

    5 May, Friday

    Time Temperature Precipitation Wind Pressure Humidity
    00:00 +18°C° 0 mm 3 mps 753 mmHg 50%
    01:00 +17°C° 0 mm 2 mps 753 mmHg 55%
    02:00 +17°C° 0 mm 2 mps 753 mmHg 61%
    03:00 +17°C° 0 mm 3 mps 753 mmHg 59%
    04:00 +17°C° 0 mm 3 mps 753 mmHg 56%
    05:00 +18°C° 0 mm 3 mps 753 mmHg 53%
    06:00 +18°C° 0 mm 4 mps 753 mmHg 52%
    07:00 +18°C° 0 mm 4 mps 753 mmHg 51%
    08:00 +17°C° 0 mm 5 mps 753 mmHg 50%
    09:00 +20°C° 0.2 mm 6 mps 753 mmHg 54%
    10:00 +22°C° 0.2 mm 6 mps 753 mmHg 58%
    11:00 +24°C° 0.2 mm 7 mps 752 mmHg 62%
    12:00 +26°C° 0 mm 7 mps 752 mmHg 58%
    13:00 +27°C° 0 mm 7 mps 751 mmHg 54%
    14:00 +27°C° 0 mm 7 mps 751 mmHg 51%
    15:00 +26°C° 0.8 mm 7 mps 751 mmHg 55%
    16:00 +24°C° 0.8 mm 6 mps 751 mmHg 60%
    17:00 +23°C° 0.8 mm 5 mps 751 mmHg 64%
    18:00 +23°C° 1.4 mm 4 mps 751 mmHg 69%
    19:00 +22°C° 1.4 mm 3 mps 751 mmHg 74%
    20:00 +21°C° 1.4 mm 2 mps 752 mmHg 79%
    21:00 +21°C° 0.1 mm 3 mps 751 mmHg 80%
    22:00 +20°C° 0.1 mm 3 mps 751 mmHg 81%
    23:00 +20°C° 0.1 mm 4 mps 751 mmHg 82%
    Show more